Weather History for Gunnison, CO

Change the Weather History Date:

Sunday, February 2, 2014

  Actual Average Record
Temperature  
Mean Temperature 4 °F -  
Max Temperature 10 °F 23 °F 35 °F (2006)
Min Temperature -2 °F 0 °F -16 °F (2011)
Degree Days  
Heating Degree Days 61    
Moisture  
Dew Point -4 °F    
Average Humidity 75    
Maximum Humidity 100    
Minimum Humidity 40    
Precipitation  
Precipitation 0.00 in - - ()
Sea Level Pressure  
Sea Level Pressure 30.04 in    
Wind  
Wind Speed 3 mph (ENE)    
Max Wind Speed 13 mph    
Max Gust Speed -    
Visibility 10 miles    
Events      
Averages and records for this station are not official NWS values.
T = Trace of Precipitation, MM = Missing Value Source: NWS Daily Summary

Daily Weather History Graph

Daily Weather History Graph

Search for Another Location

Airport:

Trip Planner

Search our weather history database for the weather conditions in past years. The results will help you decide how hot, cold, wet, or windy it might be!

Date:

Astronomy

Feb. 02, 2014 Rise Set
Actual Time 7:12 AM MST 5:31 PM MST
Civil Twilight 6:44 AM MST 5:59 PM MST
Nautical Twilight 6:12 AM MST 6:30 PM MST
Astronomical Twilight 5:41 AM MST 7:01 PM MST
Moon 8:43 AM MST (2/2) 9:14 PM MST (2/2)
Length of Visible Light 11h 14m
Length of Day
10h 18m
Waxing Crescent, 12% of the Moon is Illuminated
Feb 2
Waxing Crescent
Feb 6
First Quarter
Feb 14
Full
Feb 22
Last Quarter
Mar 1
New

Hourly Weather History & Observations

Time (MST) Temp. Windchill Dew Point Humidity Pressure Visibility Wind Dir Wind Speed Gust Speed Precip Events Conditions
12:15 AM 3.2 °F -4.2 °F -0.4 °F 85% 30.02 in 10.0 mi North 3.5 mph - N/A   Mostly Cloudy
12:35 AM 1.4 °F -8.3 °F -5.8 °F 72% 30.02 in 10.0 mi North 4.6 mph - N/A   Overcast
12:55 AM -0.4 °F -8.3 °F -5.8 °F 78% 30.02 in 10.0 mi SE 3.5 mph - N/A   Overcast
1:15 AM -2.2 °F - -9.4 °F 71% 30.02 in 10.0 mi Calm Calm - N/A   Overcast
1:35 AM 1.4 °F -9.9 °F -0.4 °F 92% 30.02 in 10.0 mi North 5.8 mph - N/A   Overcast
1:55 AM 1.4 °F - -4.0 °F 78% 30.03 in 10.0 mi Calm Calm - N/A   Overcast
2:15 AM 1.4 °F -8.3 °F -4.0 °F 78% 30.03 in 10.0 mi NE 4.6 mph - N/A   Overcast
2:35 AM 1.4 °F - -2.2 °F 85% 30.03 in 10.0 mi Calm Calm - N/A   Overcast
2:55 AM 1.4 °F - -4.0 °F 78% 30.04 in 10.0 mi Calm Calm - N/A   Overcast
3:15 AM -0.4 °F - -9.4 °F 66% 30.04 in 10.0 mi Calm Calm - N/A   Overcast
3:35 AM -0.4 °F - -0.4 °F 100% 30.04 in 10.0 mi Calm Calm - N/A   Overcast
3:55 AM -0.4 °F - -7.6 °F 72% 30.04 in 10.0 mi Calm Calm - N/A   Overcast
4:15 AM -0.4 °F - -0.4 °F 100% 30.04 in 10.0 mi Calm Calm - N/A   Overcast
4:35 AM -0.4 °F - -5.8 °F 78% 30.04 in 10.0 mi Calm Calm - N/A   Overcast
4:55 AM 1.4 °F - -0.4 °F 92% 30.04 in 10.0 mi Calm Calm - N/A   Overcast
5:15 AM 1.4 °F - -7.6 °F 66% 30.05 in 10.0 mi Calm Calm - N/A   Overcast
5:35 AM 1.4 °F - 1.4 °F 100% 30.05 in 10.0 mi Calm Calm - N/A   Overcast
5:55 AM 1.4 °F - -7.6 °F 66% 30.06 in 10.0 mi Calm Calm - N/A   Overcast
6:15 AM 1.4 °F -6.2 °F -0.4 °F 92% 30.06 in 10.0 mi NNE 3.5 mph - N/A   Scattered Clouds
6:35 AM -0.4 °F - -9.4 °F 66% 30.07 in 10.0 mi Calm Calm - N/A   Mostly Cloudy
6:55 AM -0.4 °F -8.3 °F -2.2 °F 92% 30.08 in 10.0 mi NNE 3.5 mph - N/A   Overcast
7:15 AM -2.2 °F - -14.8 °F 55% 30.09 in 10.0 mi Calm Calm - N/A   Overcast
7:35 AM -0.4 °F -12.0 °F -2.2 °F 92% 30.09 in 10.0 mi North 5.8 mph - N/A   Overcast
7:55 AM -0.4 °F -13.4 °F -16.6 °F 46% 30.10 in 10.0 mi North 6.9 mph - N/A   Overcast
8:15 AM -0.4 °F -12.0 °F -5.8 °F 78% 30.10 in 10.0 mi North 5.8 mph - N/A   Mostly Cloudy
8:35 AM -0.4 °F -12.0 °F -11.2 °F 60% 30.11 in 10.0 mi North 5.8 mph - N/A   Overcast
8:55 AM 1.4 °F -9.9 °F -4.0 °F 78% 30.12 in 6.0 mi NNW 5.8 mph - N/A   Overcast
9:15 AM 1.4 °F -9.9 °F -9.4 °F 61% 30.12 in 9.0 mi North 5.8 mph - N/A   Overcast
9:35 AM 1.4 °F -8.3 °F -0.4 °F 92% 30.12 in 7.0 mi North 4.6 mph - N/A   Overcast
9:55 AM 3.2 °F -11.3 °F -11.2 °F 51% 30.13 in 10.0 mi NNE 9.2 mph - N/A   Overcast
10:15 AM 3.2 °F -4.2 °F -0.4 °F 85% 30.13 in 10.0 mi North 3.5 mph - N/A   Overcast
10:35 AM 3.2 °F -4.2 °F -9.4 °F 56% 30.12 in 9.0 mi North 3.5 mph - N/A   Mostly Cloudy
10:55 AM 6.8 °F -2.0 °F 6.8 °F 100% 30.12 in 10.0 mi NNE 4.6 mph - N/A   Clear
11:15 AM 6.8 °F - -13.0 °F 40% 30.11 in 10.0 mi Calm Calm - N/A   Clear
11:35 AM 6.8 °F -2.0 °F 5.0 °F 92% 30.10 in 10.0 mi ESE 4.6 mph - N/A   Clear
11:55 AM 6.8 °F -0.1 °F -9.4 °F 48% 30.09 in 10.0 mi SE 3.5 mph - N/A   Clear
12:15 PM 6.8 °F - 3.2 °F 85% 30.08 in 10.0 mi Calm Calm - N/A   Clear
12:35 PM 6.8 °F -0.1 °F -5.8 °F 56% 30.06 in 10.0 mi ESE 3.5 mph - N/A   Clear
12:55 PM 8.6 °F 2.0 °F -0.4 °F 67% 30.05 in 10.0 mi SE 3.5 mph - N/A   Clear
1:15 PM 8.6 °F 0.1 °F 1.4 °F 73% 30.04 in 10.0 mi SE 4.6 mph - N/A   Clear
1:35 PM 8.6 °F -1.3 °F -5.8 °F 52% 30.03 in 10.0 mi SE 5.8 mph - N/A   Clear
1:55 PM 8.6 °F 2.0 °F 6.8 °F 92% 30.03 in 10.0 mi SE 3.5 mph - N/A   Clear
2:15 PM 8.6 °F 2.0 °F -4.0 °F 57% 30.02 in 10.0 mi ESE 3.5 mph - N/A   Clear
2:35 PM 10.4 °F - 1.4 °F 67% 30.01 in 10.0 mi Calm Calm - N/A   Clear
2:55 PM 10.4 °F 0.8 °F 3.2 °F 73% 30.00 in 10.0 mi East 5.8 mph - N/A   Clear
3:15 PM 8.6 °F -3.7 °F -2.2 °F 62% 29.99 in 10.0 mi East 8.1 mph - N/A   Clear
3:35 PM 8.6 °F -1.3 °F -2.2 °F 62% 29.98 in 10.0 mi East 5.8 mph - N/A   Clear
3:55 PM 8.6 °F -1.3 °F 5.0 °F 85% 29.98 in 10.0 mi East 5.8 mph - N/A   Clear
4:15 PM 8.6 °F 0.1 °F 1.4 °F 73% 29.98 in 10.0 mi East 4.6 mph - N/A   Clear
4:35 PM 8.6 °F 2.0 °F -2.2 °F 62% 29.97 in 10.0 mi SSE 3.5 mph - N/A   Clear
4:55 PM 8.6 °F 0.1 °F 6.8 °F 92% 29.97 in 10.0 mi South 4.6 mph - N/A   Clear
5:15 PM 6.8 °F -3.5 °F -5.8 °F 56% 29.98 in 10.0 mi South 5.8 mph - N/A   Clear
5:35 PM 3.2 °F -7.8 °F -2.2 °F 78% 30.00 in 10.0 mi South 5.8 mph - N/A   Clear
5:55 PM 3.2 °F -6.2 °F -2.2 °F 78% 30.01 in 10.0 mi SSE 4.6 mph - N/A   Clear
6:15 PM 3.2 °F -7.8 °F -5.8 °F 66% 30.00 in 10.0 mi SE 5.8 mph - N/A   Clear
6:35 PM 3.2 °F -7.8 °F 3.2 °F 100% 30.00 in 10.0 mi NNE 5.8 mph - N/A   Partly Cloudy
6:55 PM 5.0 °F -6.9 °F -0.4 °F 78% 29.99 in 10.0 mi NNE 6.9 mph - N/A   Partly Cloudy
7:15 PM 3.2 °F -10.3 °F -7.6 °F 61% 29.99 in 10.0 mi NNE 8.1 mph - N/A   Clear
7:35 PM 3.2 °F -13.9 °F 3.2 °F 100% 29.98 in 10.0 mi NE 12.7 mph - N/A   Clear
7:55 PM 3.2 °F -11.3 °F -7.6 °F 61% 29.98 in 10.0 mi NE 9.2 mph - N/A   Clear
8:15 PM 3.2 °F -13.1 °F -2.2 °F 78% 29.98 in 10.0 mi NE 11.5 mph - N/A   Clear
8:35 PM 3.2 °F -12.2 °F 1.4 °F 92% 29.98 in 10.0 mi NNE 10.4 mph - N/A   Clear
8:55 PM 3.2 °F -9.1 °F -9.4 °F 56% 29.99 in 10.0 mi NE 6.9 mph - N/A   Clear
9:15 PM 3.2 °F - 3.2 °F 100% 30.00 in 10.0 mi Calm Calm - N/A   Clear
9:35 PM 1.4 °F - -7.6 °F 66% 30.00 in 10.0 mi Calm Calm - N/A   Clear
9:55 PM 1.4 °F - -0.4 °F 92% 30.00 in 10.0 mi Calm Calm - N/A   Clear
10:15 PM 1.4 °F -8.3 °F -9.4 °F 61% 30.00 in 10.0 mi SSW 4.6 mph - N/A   Clear
10:35 PM -0.4 °F - -0.4 °F 100% 30.00 in 10.0 mi Calm Calm - N/A   Partly Cloudy
10:55 PM -0.4 °F - -9.4 °F 66% 30.01 in 10.0 mi Calm Calm - N/A   Clear
11:15 PM -0.4 °F -12.0 °F -5.8 °F 78% 30.00 in 10.0 mi East 5.8 mph - N/A   Clear
11:35 PM -2.2 °F -14.2 °F -7.6 °F 78% 30.01 in 10.0 mi ENE 5.8 mph - N/A   Clear
11:55 PM -0.4 °F -8.3 °F -5.8 °F 78% 30.00 in 10.0 mi NE 3.5 mph - N/A   Clear